CZ-6A DEB

Satellite information

Favourite Embed

Satellite Type and Status

DEBRISIN ORBIT

Key statistics

Satellite CZ-6A DEB at a glance.

Uptime

455

Days in orbit

Revolutions

≈ 14.1

Per day

Orbit

LEO

Low Earth Orbit

Inclination

88.8

Latest

Satellite identification and parameters

Extended collection of information and parameters for CZ-6A DEB.

Object identification

Identified? True

Debris? True

Object name: CZ-6A DEB

International designator: 2024-140SJ

Object number (NORAD): 61273

Object ID (CCSDS): 61273

Country: PEOPLES REPUBLIC OF CHINA (PRC)

Current information (Y/N): Y

RCS size: SMALL

Orbital parameters

Period: 102.09 minutes

Inclination: 88.8482 deg

SMA: 7235.725 km

Apoapsis: 927.629 km

Periapsis: 787.551 km

RAAN: 293.4764 deg

Eccentricy: 0.00967957

Argument of periapsis: 236.5764 deg

Mean anomaly: 122.6136 deg

Mean motion: 14.10521417 rev/day

Mean motion (dot): 0.00004097 rev/day2

B* drag term: 0.0021961688 1/REarth

Two-line elements (TLE)

Creation date: Nov. 2, 2025, 5:34 p.m.

Reference frame: TEME

Reference center: EARTH

Epoch: Nov. 1, 2025, 11 p.m. UTC

TLE line 0: 0 CZ-6A DEB

TLE line 1: 1 61273U 24140SJ 25305.95891004 .00004097 00000-0 21962-2 0 9993

TLE line 2: 2 61273 88.8482 293.4764 0096796 236.5764 122.6136 14.10521417 60995

Live tracking on map

Real-time ground track for satellite CZ-6A DEB.

In-orbit conjunctions

A list of the most updated potential collisions computed for object CZ-6A DEB.

Target Orbit TCA Probability of collision Miss distance Type
COSMOS 1275 DEB LEO 2025-09-21 16:38:06 0.0001007211 32.0 (m) DEBRIS
OBJECT E SSO 2025-03-05 17:27:31 0.0007636761 700.0 (m) UNKNOWN
CZ-6A DEB LEO 2025-03-04 09:05:51 0.0001134651 961.0 (m) DEBRIS
CZ-6A DEB LEO 2025-02-03 06:49:48 0.0002333294 746.0 (m) DEBRIS
COSMOS 2251 DEB LEO 2024-10-15 06:57:11 0.000100554 433.0 (m) DEBRIS

Associated space launch

18 Low Earth Orbit communication satellites with Ku, Q and V band payloads for the G60 constellation operated by Shanghai Spacecom Satellite Technology (SSST) with funding backed by the Shanghai local government. Initial constellation will consist of 1296 satellites by 2027 with long term plans to expand it to 12000 satellites.

CZ-6A DEB was lifted into orbit during the mission ‘Long March 6A | G60 Polar Group 01’, on board a Long March 6A space rocket.

The launch took place on Aug. 6, 2024, 6:42 a.m. from Launch Complex 9A.

For more information about the launch, click the button.

Launch to space Long March 6A | G60 Polar Group 01
Long March 6A | G60 Polar Group 01

Agency: N/A

Status: Launch Successful

Launch date: Aug. 6, 2024, 6:42 a.m. UTC

Rocket: Long March 6A

Launch pad: Launch Complex 9A

Location: Taiyuan Satellite Launch Center, People's Republic of China

...

Latest news about this satellite

News about space launch
Brightness of first Chinese broadband constellation satellites alarms astronomers

The first satellites of a Chinese broadband constellation are significantly brighter than those of Western systems, posing a new challenge for astronomers.

News about space launch
Chinese rocket stage breaks up into cloud of more than 700 pieces of space debris

HELSINKI — A Chinese Long March 6A rocket’s upper stage has fragmented into a cloud of over 700 pieces of space debris, adding to concerns about long-term orbital safety. China […]

News about space launch
China's Thousand Sails Megaconstellation Kicks Off with Dangerous Debris Field

China's Thousand Sails Megaconstellation Kicks Off with Dangerous Debris Field


Newsletter sign-up

Weekly statistics, charts and insights to help you stay on top of the space industry.